Meridian, MS

10:11 AM CST on November 21, 2019 (GMT -0600)
Key

Weather History for KMEI - September, 2019

Change the Weather History Date:

Thursday, September 5, 2019

  Actual Average Record
Temperature  
Mean Temperature 84 °F 78 °F  
Max Temperature 98 °F 90 °F 103 °F (1925)
Min Temperature 69 °F 66 °F 49 °F (1891)
Degree Days  
Heating Degree Days 0 0  
Month to date heating degree days 0 0  
Since 1 July heating degree days 0 0  
Cooling Degree Days 18 13  
Month to date cooling degree days 92 67  
Year to date cooling degree days 2175 1687  
Growing Degree Days 34 (Base 50)    
Moisture  
Dew Point 72 °F    
Average Humidity 71    
Maximum Humidity 93    
Minimum Humidity 48    
Precipitation  
Precipitation 0.00 in 0.12 in 3.27 in (1889)
Month to date precipitation 0.00 0.57  
Year to date precipitation 42.95 39.53  
Sea Level Pressure  
Sea Level Pressure 29.99 in    
Wind  
Wind Speed 3 mph ()    
Max Wind Speed 15 mph    
Max Gust Speed 22 mph    
Visibility 10.0 miles    
Events      
T = Trace of Precipitation, MM = Missing Value Source: Averaged Metar Reports

Daily Weather History Graph

Daily Weather History Graph

Search for Another Location

Airport or City:

Astronomy

Sep. 05, 2019 Rise Set
Actual Time 6:32 AM CDT 7:14 PM CDT
Civil Twilight 6:07 AM CDT 7:39 PM CDT
Nautical Twilight 5:38 AM CDT 8:08 PM CDT
Astronomical Twilight 5:08 AM CDT 8:38 PM CDT
Moon 1:15 PM CDT (9/5) 11:54 PM CDT (9/5)
Length of Visible Light 13h 31m
Length of Day
12h 42m
Waxing Crescent, 45% of the Moon is Illuminated
Sep 5
Waxing Crescent
Sep 5
First Quarter
Sep 13
Full
Sep 21
Last Quarter
Sep 28
New

Hourly Weather History & Observations

Time (CDT) Temp. Heat Index Dew Point Humidity Pressure Visibility Wind Dir Wind Speed Gust Speed Precip Events Conditions
12:58 AM 73.0 °F - 69.1 °F 87% 30.00 in 10.0 mi Calm Calm - N/A   Clear
1:58 AM 72.0 °F - 69.1 °F 91% 29.99 in 10.0 mi Calm Calm - N/A   Clear
2:58 AM 71.1 °F - 68.0 °F 90% 29.99 in 10.0 mi Calm Calm - N/A   Clear
3:58 AM 71.1 °F - 68.0 °F 90% 29.99 in 10.0 mi SW 3.5 mph - N/A   Clear
4:58 AM 70.0 °F - 66.9 °F 90% 30.01 in 10.0 mi Calm Calm - N/A   Clear
5:58 AM 69.1 °F - 66.0 °F 90% 30.01 in 9.0 mi SSW 4.6 mph - N/A   Clear
7:58 AM 75.0 °F - 70.0 °F 84% 30.04 in 10.0 mi Calm Calm - N/A   Clear
9:58 AM 88.0 °F 97.5 °F 75.0 °F 65% 30.04 in 10.0 mi NNW 4.6 mph - N/A   Clear
10:58 AM 91.9 °F 103.9 °F 75.9 °F 59% 30.04 in 10.0 mi NNW 8.1 mph - N/A   Clear
11:58 AM 93.9 °F 106.9 °F 75.9 °F 56% 30.03 in 10.0 mi NNE 8.1 mph 17.3 mph N/A   Clear
12:58 PM 96.1 °F 108.6 °F 75.0 °F 51% 30.01 in 10.0 mi NNW 10.4 mph - N/A   Partly Cloudy
1:58 PM 97.0 °F 109.3 °F 75.0 °F 49% 29.99 in 10.0 mi North 12.7 mph - N/A   Scattered Clouds
2:58 PM 96.1 °F 107.1 °F 73.9 °F 49% 29.97 in 10.0 mi NNW 10.4 mph - N/A   Partly Cloudy
3:58 PM 95.0 °F 105.2 °F 73.9 °F 50% 29.96 in 10.0 mi NNW 13.8 mph - N/A   Partly Cloudy
4:58 PM 93.9 °F 104.0 °F 73.9 °F 52% 29.95 in 10.0 mi NW 9.2 mph - N/A   Clear
5:58 PM 93.9 °F 104.0 °F 73.9 °F 52% 29.95 in 10.0 mi NNW 9.2 mph 21.9 mph N/A   Partly Cloudy
6:58 PM 89.1 °F 97.0 °F 73.0 °F 59% 29.95 in 10.0 mi NNW 6.9 mph - N/A   Clear
7:58 PM 84.0 °F 91.9 °F 75.0 °F 74% 29.96 in 10.0 mi Calm Calm - N/A   Clear
8:58 PM 82.0 °F 88.6 °F 75.0 °F 79% 29.97 in 10.0 mi Calm Calm - N/A   Clear
9:58 PM 80.1 °F 84.5 °F 73.9 °F 81% 29.97 in 10.0 mi Calm Calm - N/A   Clear
10:58 PM 80.1 °F 84.2 °F 73.0 °F 79% 29.98 in 10.0 mi NNW 4.6 mph - N/A   Clear
11:58 PM 78.1 °F - 73.0 °F 84% 29.99 in 10.0 mi North 4.6 mph - N/A   Clear